This is the latest recevied weather packets stored in our database for station/object VK3ABC-13. If no packets are shown the sender has not sent any weather packets the latest 10 day(s).
| Time | Temp. | Humidity | Pressure | Rain* | Wind** | Luminosity | Snow |
|---|---|---|---|---|---|---|---|
| 1778037014 | 17.78° C | 58% | 1014.3 hPa | 0 mm | - | 237 W/m² | - |
| 1778035512 | 17.78° C | 59% | 1014.8 hPa | 0 mm | - | 519 W/m² | - |
| 1778034911 | 17.22° C | 60% | 1014.9 hPa | 0 mm | - | 519 W/m² | - |
| 1778033412 | 16.67° C | 60% | 1015.5 hPa | 0 mm | - | 248 W/m² | - |
| 1778032511 | 16.11° C | 61% | 1015.8 hPa | 0 mm | - | 211 W/m² | - |
| 1778029812 | 16.11° C | 61% | 1016.5 hPa | 0 mm | - | 221 W/m² | - |
| 1778027711 | 16.11° C | 62% | 1016.8 hPa | 0 mm | - | 193 W/m² | - |
| 1778027413 | 15.56° C | 62% | 1016.8 hPa | 0 mm | - | 186 W/m² | - |
| 1778026512 | 15.56° C | 63% | 1016.9 hPa | 0 mm | - | 185 W/m² | - |
| 1778023511 | 15° C | 67% | 1017.3 hPa | 0 mm | - | 105 W/m² | - |
| 1778021412 | 14.44° C | 67% | 1017.5 hPa | 0 mm | - | 70 W/m² | - |
| 1778017511 | 13.89° C | 68% | 1017.5 hPa | 0 mm | - | 19 W/m² | - |
| 1778017212 | 13.89° C | 68% | 1017.5 hPa | 0 mm | - | 19 W/m² | - |
| 1778016613 | 13.89° C | 69% | 1017.4 hPa | 0 mm | - | 12 W/m² | - |
| 1778015412 | 13.89° C | 70% | 1017.4 hPa | 0 mm | - | 0 W/m² | - |
| 1778015111 | 13.89° C | 70% | 1017.4 hPa | 0 mm | - | 0 W/m² | - |
| 1778013911 | 13.89° C | 71% | 1017.5 hPa | 0 mm | - | 0 W/m² | - |
| 1778013613 | 13.89° C | 71% | 1017.4 hPa | 0 mm | - | 0 W/m² | - |
| 1778009412 | 13.89° C | 70% | 1017.6 hPa | 0 mm | - | 0 W/m² | - |
| 1778007312 | 13.89° C | 72% | 1017.8 hPa | 0 mm | - | 0 W/m² | - |
| 1778003711 | 13.33° C | 76% | 1017.8 hPa | 0 mm | - | 0 W/m² | - |
| 1778001612 | 13.33° C | 78% | 1017.9 hPa | 0 mm | - | 0 W/m² | - |
| 1777998612 | 13.33° C | 79% | 1018.3 hPa | 0 mm | - | 0 W/m² | - |
| 1777998310 | 13.33° C | 78% | 1018.3 hPa | 0 mm | - | 0 W/m² | - |
| 1777997710 | 13.33° C | 78% | 1018.4 hPa | 0 mm | - | 0 W/m² | - |
* Rain latest hour (hover to see other rain measurements)
** Current wind speed in m/s (hover to see current wind gust speed)